When you browse on this site, cookies collect data to enhance your experience and personalize the content and advertising you see.
Visit our Privacy Policy to learn more. By continuing to use the site, you agree to this use of cookies and data.
  • In Latvia
  • List of Countries
  • For 7 days
  • Water Temperature
  • Weather Map
  • Weather Widgets
  • user-avatar
    Login

    Hourly Weather Dziurdzioly

    Today, 15 October, Tuesday

    Time Temperature Precipitation Wind Pressure Humidity
    00:00 +16°C° 0 mm 2 mps 748 mmHg 74%
    01:00 +15°C° 0 mm 2 mps 748 mmHg 75%
    02:00 +15°C° 0 mm 2 mps 747 mmHg 75%
    03:00 +15°C° 0 mm 2 mps 747 mmHg 76%
    04:00 +13°C° 0 mm 3 mps 747 mmHg 76%
    05:00 +13°C° 0 mm 3 mps 747 mmHg 75%
    06:00 +13°C° 0 mm 3 mps 746 mmHg 74%
    07:00 +13°C° 0 mm 4 mps 746 mmHg 69%
    08:00 +15°C° 0 mm 4 mps 746 mmHg 65%
    09:00 +17°C° 0 mm 4 mps 746 mmHg 61%
    10:00 +18°C° 0 mm 4 mps 745 mmHg 57%
    11:00 +19°C° 0 mm 4 mps 745 mmHg 55%
    12:00 +20°C° 0 mm 4 mps 745 mmHg 53%
    13:00 +22°C° 0 mm 3 mps 745 mmHg 52%
    14:00 +21°C° 0 mm 3 mps 744 mmHg 55%
    15:00 +20°C° 0 mm 3 mps 744 mmHg 59%
    16:00 +20°C° 0 mm 3 mps 743 mmHg 62%
    17:00 +19°C° 0 mm 3 mps 743 mmHg 65%
    18:00 +18°C° 0 mm 3 mps 743 mmHg 69%
    19:00 +17°C° 0 mm 3 mps 743 mmHg 73%
    20:00 +16°C° 0 mm 3 mps 743 mmHg 74%
    21:00 +16°C° 0 mm 3 mps 743 mmHg 76%
    22:00 +14°C° 0 mm 3 mps 743 mmHg 78%
    23:00 +14°C° 0 mm 3 mps 743 mmHg 78%

    Tomorrow, 16 October, Wednesday

    Time Temperature Precipitation Wind Pressure Humidity
    00:00 +13°C° 0 mm 3 mps 743 mmHg 78%
    01:00 +13°C° 0 mm 3 mps 743 mmHg 78%
    02:00 +13°C° 0 mm 3 mps 743 mmHg 76%
    03:00 +13°C° 0 mm 4 mps 742 mmHg 73%
    04:00 +13°C° 0 mm 4 mps 742 mmHg 71%
    05:00 +13°C° 0 mm 4 mps 742 mmHg 69%
    06:00 +14°C° 0 mm 5 mps 742 mmHg 68%
    07:00 +14°C° 0 mm 5 mps 743 mmHg 66%
    08:00 +15°C° 0 mm 6 mps 743 mmHg 67%
    09:00 +16°C° 0 mm 6 mps 743 mmHg 68%
    10:00 +18°C° 0 mm 7 mps 744 mmHg 69%
    11:00 +18°C° 0 mm 7 mps 744 mmHg 68%
    12:00 +18°C° 0 mm 7 mps 745 mmHg 66%
    13:00 +18°C° 0 mm 7 mps 745 mmHg 65%
    14:00 +17°C° 0 mm 6 mps 745 mmHg 68%
    15:00 +16°C° 0 mm 6 mps 745 mmHg 71%
    16:00 +15°C° 0 mm 5 mps 745 mmHg 74%
    17:00 +14°C° 0 mm 5 mps 746 mmHg 74%
    18:00 +13°C° 0 mm 5 mps 746 mmHg 75%
    19:00 +13°C° 0 mm 5 mps 747 mmHg 75%
    20:00 +12°C° 0 mm 4 mps 747 mmHg 74%
    21:00 +12°C° 0 mm 4 mps 747 mmHg 72%
    22:00 +11°C° 0 mm 4 mps 747 mmHg 71%
    23:00 +11°C° 0 mm 4 mps 748 mmHg 74%

    Day after tomorrow, 17 October, Thursday

    Time Temperature Precipitation Wind Pressure Humidity
    00:00 +11°C° 0 mm 4 mps 748 mmHg 77%
    01:00 +10°C° 0 mm 4 mps 748 mmHg 80%
    02:00 +10°C° 0 mm 4 mps 748 mmHg 81%
    03:00 +10°C° 0 mm 4 mps 748 mmHg 82%
    04:00 +10°C° 0 mm 4 mps 748 mmHg 82%
    05:00 +10°C° 0 mm 4 mps 748 mmHg 80%
    06:00 +10°C° 0 mm 4 mps 748 mmHg 79%
    07:00 +10°C° 0 mm 4 mps 748 mmHg 77%
    08:00 +12°C° 0 mm 4 mps 748 mmHg 70%
    09:00 +14°C° 0 mm 4 mps 749 mmHg 63%
    10:00 +17°C° 0 mm 4 mps 749 mmHg 56%
    11:00 +18°C° 0 mm 4 mps 749 mmHg 54%
    12:00 +18°C° 0 mm 4 mps 749 mmHg 51%
    13:00 +19°C° 0 mm 3 mps 748 mmHg 48%
    14:00 +19°C° 0 mm 3 mps 748 mmHg 51%
    15:00 +18°C° 0 mm 2 mps 748 mmHg 54%
    16:00 +17°C° 0 mm 2 mps 748 mmHg 57%
    17:00 +17°C° 0 mm 2 mps 748 mmHg 59%
    18:00 +16°C° 0 mm 2 mps 748 mmHg 60%
    19:00 +15°C° 0 mm 2 mps 748 mmHg 62%
    20:00 +15°C° 0 mm 2 mps 749 mmHg 62%
    21:00 +15°C° 0 mm 2 mps 749 mmHg 62%
    22:00 +14°C° 0 mm 2 mps 749 mmHg 62%
    23:00 +14°C° 0 mm 2 mps 749 mmHg 63%

    18 October, Friday

    Time Temperature Precipitation Wind Pressure Humidity
    00:00 +14°C° 0 mm 2 mps 749 mmHg 64%
    01:00 +14°C° 0 mm 2 mps 748 mmHg 66%
    02:00 +14°C° 0 mm 2 mps 748 mmHg 70%
    03:00 +13°C° 0 mm 2 mps 748 mmHg 74%
    04:00 +13°C° 0 mm 2 mps 748 mmHg 79%
    05:00 +12°C° 0 mm 2 mps 748 mmHg 82%
    06:00 +12°C° 0 mm 2 mps 748 mmHg 84%
    07:00 +12°C° 0 mm 2 mps 748 mmHg 87%
    08:00 +14°C° 0 mm 2 mps 748 mmHg 80%
    09:00 +15°C° 0 mm 2 mps 749 mmHg 73%
    10:00 +16°C° 0 mm 2 mps 749 mmHg 66%
    11:00 +17°C° 0 mm 2 mps 748 mmHg 63%
    12:00 +19°C° 0 mm 1 mps 748 mmHg 59%
    13:00 +20°C° 0 mm 1 mps 748 mmHg 55%
    14:00 +19°C° 0 mm 1 mps 748 mmHg 58%
    15:00 +19°C° 0 mm 1 mps 748 mmHg 61%
    16:00 +16°C° 0 mm 0 mps 748 mmHg 64%
    17:00 +18°C° 0 mm 1 mps 748 mmHg 67%
    18:00 +16°C° 0 mm 1 mps 748 mmHg 69%
    19:00 +15°C° 0 mm 1 mps 748 mmHg 71%
    20:00 +15°C° 0 mm 1 mps 748 mmHg 73%
    21:00 +15°C° 0 mm 1 mps 748 mmHg 75%
    22:00 +15°C° 0 mm 1 mps 748 mmHg 77%
    23:00 +14°C° 0 mm 1 mps 748 mmHg 80%

    19 October, Saturday

    Time Temperature Precipitation Wind Pressure Humidity
    00:00 +14°C° 0 mm 1 mps 748 mmHg 82%
    01:00 +14°C° 0 mm 1 mps 747 mmHg 85%
    02:00 +14°C° 0 mm 2 mps 747 mmHg 85%
    03:00 +13°C° 0 mm 2 mps 747 mmHg 86%
    04:00 +13°C° 0 mm 2 mps 747 mmHg 87%
    05:00 +13°C° 0 mm 2 mps 747 mmHg 87%
    06:00 +13°C° 0 mm 2 mps 746 mmHg 88%
    07:00 +13°C° 0 mm 2 mps 746 mmHg 88%
    08:00 +14°C° 0 mm 3 mps 746 mmHg 82%
    09:00 +16°C° 0 mm 3 mps 745 mmHg 76%
    10:00 +18°C° 0 mm 3 mps 745 mmHg 70%
    11:00 +18°C° 0 mm 3 mps 745 mmHg 67%
    12:00 +19°C° 0 mm 3 mps 744 mmHg 64%
    13:00 +20°C° 0 mm 3 mps 744 mmHg 60%
    14:00 +20°C° 0.1 mm 2 mps 744 mmHg 63%
    15:00 +19°C° 0.1 mm 2 mps 743 mmHg 66%
    16:00 +18°C° 0.1 mm 2 mps 743 mmHg 68%
    17:00 +18°C° 0 mm 2 mps 743 mmHg 69%
    18:00 +17°C° 0 mm 2 mps 743 mmHg 71%
    19:00 +16°C° 0 mm 2 mps 743 mmHg 72%
    20:00 +16°C° 0 mm 2 mps 743 mmHg 71%
    21:00 +16°C° 0 mm 2 mps 743 mmHg 70%
    22:00 +16°C° 0 mm 3 mps 743 mmHg 69%
    23:00 +16°C° 0 mm 3 mps 743 mmHg 71%

    20 October, Sunday

    Time Temperature Precipitation Wind Pressure Humidity
    00:00 +14°C° 0 mm 3 mps 743 mmHg 73%
    01:00 +13°C° 0 mm 3 mps 744 mmHg 74%
    02:00 +13°C° 0 mm 3 mps 744 mmHg 78%
    03:00 +12°C° 0 mm 3 mps 744 mmHg 82%
    04:00 +13°C° 0 mm 2 mps 744 mmHg 86%
    05:00 +12°C° 0 mm 2 mps 744 mmHg 87%
    06:00 +12°C° 0 mm 2 mps 744 mmHg 88%
    07:00 +12°C° 0 mm 2 mps 745 mmHg 88%
    08:00 +13°C° 0 mm 3 mps 745 mmHg 82%
    09:00 +14°C° 0 mm 3 mps 745 mmHg 76%
    10:00 +16°C° 0 mm 3 mps 746 mmHg 70%
    11:00 +17°C° 0 mm 3 mps 746 mmHg 67%
    12:00 +18°C° 0 mm 3 mps 746 mmHg 64%
    13:00 +18°C° 0 mm 3 mps 747 mmHg 61%
    14:00 +18°C° 0 mm 2 mps 747 mmHg 64%
    15:00 +17°C° 0 mm 2 mps 747 mmHg 67%
    16:00 +16°C° 0 mm 1 mps 747 mmHg 70%
    17:00 +16°C° 0 mm 1 mps 748 mmHg 74%
    18:00 +15°C° 0 mm 1 mps 748 mmHg 77%
    19:00 +14°C° 0 mm 1 mps 749 mmHg 81%
    20:00 +14°C° 0 mm 1 mps 749 mmHg 83%
    21:00 +13°C° 0 mm 1 mps 749 mmHg 85%
    22:00 +12°C° 0 mm 0 mps 749 mmHg 87%
    23:00 +13°C° 0.1 mm 1 mps 749 mmHg 87%
    Show more